Location: Gadern
(49.5873°N, 8.8138°E)
Time: 00:33:15
(UTC+00:00)

Cosmos 2239 Rocket - Pass Details

Date: 19 May 2025
Orbit: 952 x 991 km, 82.9° (Epoch: 22 June)

Event Time Altitude Azimuth Distance (km) Brightness Sun altitude
Rises 21:50:39 0° 349° (N) 3,681 9.1 -17.6°
Reaches altitude 10° 21:53:10 10° 349° (N) 2,724 8.1 -17.7°
Maximum altitude 21:59:24 82° 263° (W) 978 4.5 -18.1°
Enters shadow 22:02:49 28° 178° (S) 1,699 5.2 -18.3°
